This demonstration page uses our WeatherBlox Daily Observations layout. Learn more.

Left ArrowRight Arrow

39.08367, -84.50855

Hourly Observations for June 14, 2015

Temp ( °F °C ) Dew Point ( °F °C ) Humidity (%) Winds ( mph kmh ) Pressure ( in mb ) Visibility ( mi km ) Precip ( " mm )
12:53 am 00:53 Clear 77 25 70 21.1 79 79 SSW 7 11 30.04 1017 10 16 N/A
1:53 am 01:53 Partly Cloudy 77 25 70 21.1 79 79 SW 5 7 30.03 1017 10 16 N/A
2:53 am 02:53 Mostly Clear 75 23.9 70 21.1 84 84 SSW 5 7 30.03 1017 10 16 N/A
3:53 am 03:53 Partly Cloudy 74 23.3 70 21.1 88 88 S 5 7 30.01 1016 10 16 N/A
4:53 am 04:53 Mostly Cloudy 74 23.3 70 21.1 88 88 SSW 6 9 30.02 1017 10 16 N/A
5:53 am 05:53 Clear 73 22.8 70 21.1 90 90 SW 3 6 30.03 1017 10 16 N/A
6:53 am 06:53 Sunny 72 22.2 70 21.1 94 94 SSW 5 7 30.04 1017 10 16 N/A
7:53 am 07:53 Sunny 77 25 71 21.7 82 82 SSW 6 9 30.05 1018 10 16 N/A
8:53 am 08:53 Sunny 79 26.1 72 22.2 79 79 SSW 8 13 30.06 1018 10 16 N/A
9:53 am 09:53 Sunny 80 26.7 71 21.7 74 74 SW 9 15 30.06 1018 10 16 N/A
10:53 am 10:53 Sunny 84 28.9 70 21.1 63 63 WSW 10 17 30.05 1018 10 16 N/A
11:53 am 11:53 Partly Cloudy 86 30 70 21.1 59 59 WSW 16 26 30.05 1018 10 16 N/A
12:53 pm 12:53 Mostly Cloudy 86 30 71 21.7 61 61 SW 10 17 30.04 1017 10 16 N/A
1:53 pm 13:53 Mostly Sunny 88 31.1 71 21.7 57 57 SW 10 17 30.03 1017 10 16 N/A
2:53 pm 14:53 Mostly Sunny 88 31.1 68 20 52 52 WSW 14 22 30.01 1016 10 16 N/A
3:53 pm 15:53 Mostly Sunny 89 31.7 70 21.1 53 53 SSW 15 24 29.99 1016 10 16 N/A
4:53 pm 16:53 Partly Cloudy 89 31.7 69 20.6 52 52 SSW 14 22 29.98 1015 10 16 N/A
5:53 pm 17:53 Mostly Sunny 89 31.7 70 21.1 53 53 SW 12 19 29.98 1015 10 16 N/A
6:53 pm 18:53 Mostly Sunny 85 29.4 69 20.6 59 59 SSW 16 26 29.96 1015 10 16 N/A
7:53 pm 19:53 Mostly Sunny 84 28.9 71 21.7 65 65 SSW 10 17 29.96 1015 10 16 N/A
8:53 pm 20:53 Sunny 83 28.3 69 20.6 63 63 SW 8 13 29.97 1015 10 16 N/A
9:53 pm 21:53 Clear 80 26.7 69 20.6 69 69 SW 9 15 29.99 1016 10 16 N/A
10:53 pm 22:53 Clear 77 25 69 20.6 77 77 SSW 7 11 30.01 1016 10 16 N/A
11:53 pm 23:53 Clear 76 24.4 70 21.1 82 82 SSW 7 11 30.03 1017 10 16 N/A

Powered by AerisWeather